Volver al catálogo

THOR ABLESTAR DEB *

ActivoLEO
NORAD 19961·DEBRIS·🇺🇸 United States

Lanzado Jun 29, 1961 desde Cape Canaveral Space Force Station

Loading…

Próximos Pases (próximas 24 horas)

TLE

ActualizadoSource: Space-Track

Época: Sep 14, 2026, 15:54 UTC

1 19961U 61015MJ  26257.66312177  .00000135  00000-0  19398-3 0  9996
2 19961  65.6442 342.7302 0164288 319.2063 192.6399 13.78701651952856

Sigue THOR ABLESTAR DEB * en tiempo real con AllMySat

Download on the App Store